Probability
0 0 0 0 0 0 0 0 0 0 3 10 23 29 52 58 68 77 81 81 84 87 81 77 77 84 77 65 68 65 58 52 52 45 48 42 42 39 32 35 32 35 35 35
0 0 0 0 0 0 0 0 0 0 3 10 26 39 58 65 74 84 84 90 87 84 81 77 81 77 68 68 65 65 55 48 45 45 48 42 35 32 29 32 32 32 29 26
0 0 0 0 0 0 0 0 0 0 13 19 39 58 74 84 84 87 90 90 90 87 84 84 77 74 68 65 65 61 48 45 42 42 39 35 32 29 29 29 32 35 29 26
0 0 0 0 0 0 0 0 0 3 13 23 42 65 74 90 90 87 87 90 90 90 81 74 71 68 65 58 61 52 45 42 42 39 39 35 39 35 32 32 32 29 23 23
0 0 0 0 0 0 0 3 6 10 16 35 45 61 65 77 87 87 90 90 87 84 74 74 68 61 65 58 58 48 45 42 42 39 39 39 39 39 39 32 29 26 19 19
0 0 0 0 0 0 0 6 10 19 39 52 55 58 61 84 87 87 87 90 81 77 74 71 61 61 58 52 39 39 39 39 35 32 32 32 35 39 39 32 26 19 19 16
3 0 0 3 3 0 3 35 35 35 45 58 68 71 77 81 84 77 74 77 74 74 68 61 55 55 42 39 35 32 32 32 35 35 32 29 39 35 26 29 26 16 16 10
10 6 3 16 16 35 77 87 68 68 61 68 74 81 77 81 71 68 71 71 61 58 58 52 52 45 45 39 32 26 26 26 29 29 23 23 29 23 23 19 13 13 13 6
16 35 65 58 61 71 68 68 68 68 74 77 74 77 74 68 65 65 68 55 58 52 42 42 42 42 39 39 26 23 26 23 19 19 23 26 23 19 23 13 13 10 6 6
45 42 45 61 55 61 58 65 68 71 68 71 77 71 68 61 65 61 61 52 48 39 35 35 35 35 32 26 26 19 19 19 19 19 16 10 6 6 0 0 0 6 3 0
39 52 48 52 58 58 55 55 58 61 65 71 68 68 65 61 58 61 58 52 39 35 35 35 35 32 29 26 26 16 16 19 16 16 3 0 0 0 0 0 0 0 0 0
35 42 42 52 45 48 52 52 55 65 65 61 65 61 55 48 48 42 39 39 35 35 35 35 29 29 26 26 26 23 16 16 13 3 0 0 0 0 0 0 0 0 0 0
45 48 45 45 48 42 39 42 48 58 61 55 52 48 52 42 42 35 32 35 29 32 32 32 23 16 16 19 19 19 23 13 6 3 0 0 0 0 0 0 0 0 0 0
48 55 52 45 39 35 32 39 39 45 45 52 42 39 39 35 32 32 29 26 26 19 19 16 19 10 10 10 16 13 6 6 3 3 0 0 0 0 0 0 0 0 0 0
35 42 35 39 29 29 39 35 39 35 32 29 29 29 29 26 26 23 23 19 19 19 19 10 6 6 10 10 6 6 6 3 3 3 0 0 0 0 0 0 0 0 0 0
29 35 29 29 29 29 35 39 35 32 23 19 19 19 16 23 26 19 16 23 19 13 6 6 3 6 3 3 3 3 3 0 0 0 0 0 0 0 0 0 0 0 0 0
26 32 32 26 26 26 26 35 32 26 19 16 16 16 16 16 13 13 13 16 16 13 10 6 3 3 3 3 3 0 0 0 0 0 0 0 0 0 0 0 0 0 0 0
19 23 26 29 29 19 23 26 19 26 19 16 16 16 16 13 10 3 3 3 10 10 6 6 3 3 3 3 0 0 0 0 0 0 0 0 0 0 0 0 0 0 0 0
16 16 19 16 10 16 26 19 23 23 16 16 10 10 6 3 3 3 0 6 10 10 6 6 0 3 3 0 0 0 0 0 0 0 0 0 0 0 0 0 0 0 0 0
13 19 13 10 10 19 23 23 23 16 6 6 3 3 6 3 3 3 3 0 6 3 6 6 0 0 0 0 0 0 0 0 0 0 0 0 0 0 0 0 0 0 0 0
6 6 3 6 3 10 19 13 13 10 6 6 3 3 0 3 0 0 0 0 3 0 0 0 0 0 0 0 0 0 0 0 0 0 0 0 0 0 0 0 0 0 0 0
6 6 6 6 10 19 13 10 6 6 3 0 0 0 0 0 0 0 0 3 0 0 0 0 0 0 0 0 0 0 0 0 0 0 0 0 0 0 0 0 0 0 0 0
6 10 6 10 13 10 6 6 3 3 3 0 0 0 0 0 0 0 0 3 0 0 0 0 0 0 0 0 0 0 0 0 0 0 0 0 0 0 0 0 0 0 0 0
6 10 10 10 6 6 3 6 3 6 3 0 0 0 0 0 0 0 0 0 0 0 0 0 0 0 0 0 0 0 0 0 0 0 0 0 0 0 0 0 0 0 0 0
6 6 6 10 3 3 3 3 3 3 3 0 0 0 0 0 0 0 0 0 0 0 0 0 0 0 0 0 0 0 0 0 0 0 0 0 0 0 0 0 0 0 0 0
10 6 10 13 6 6 3 3 3 3 0 0 0 0 0 0 0 0 0 0 0 0 0 0 0 0 0 0 0 0 0 0 0 0 0 0 0 0 0 0 0 0 0 0
6 10 10 6 3 6 0 0 0 0 0 0 0 0 0 0 0 0 0 0 0 0 0 0 0 0 0 0 0 0 0 0 0 0 0 0 0 0 0 0 0 0 0 0
Height
5855 5860 5864 5867 5869 5873 5877 5880 5884 5885 5887 5886 5885 5886 5887 5887 5886 5887 5888 5888 5888 5888 5887 5886 5886 5884 5883 5882 5881 5881 5881 5880 5880 5879 5878 5877 5877 5875 5874 5872 5870 5869 5868 5867
5849 5854 5859 5862 5865 5869 5872 5875 5878 5880 5881 5881 5881 5882 5883 5883 5884 5884 5885 5885 5885 5885 5885 5884 5884 5883 5882 5881 5880 5880 5879 5878 5878 5877 5876 5875 5874 5873 5871 5870 5868 5866 5864 5863
5845 5850 5854 5857 5861 5864 5867 5870 5873 5875 5875 5875 5877 5878 5879 5880 5880 5881 5882 5882 5882 5882 5882 5881 5881 5880 5880 5879 5878 5877 5877 5876 5876 5875 5874 5873 5871 5870 5869 5867 5865 5863 5862 5860
5840 5845 5848 5854 5857 5859 5862 5866 5868 5870 5869 5871 5873 5874 5875 5876 5877 5878 5878 5879 5879 5879 5879 5878 5878 5878 5877 5876 5876 5875 5874 5873 5873 5872 5871 5870 5869 5868 5866 5864 5863 5861 5859 5858
5835 5839 5843 5848 5850 5854 5857 5859 5862 5864 5864 5866 5868 5869 5870 5871 5872 5874 5875 5875 5875 5875 5875 5875 5875 5875 5874 5873 5873 5872 5871 5871 5870 5869 5868 5867 5866 5865 5863 5862 5860 5858 5857 5855
5829 5834 5838 5843 5845 5848 5852 5853 5856 5857 5859 5861 5863 5864 5866 5867 5868 5870 5871 5871 5871 5872 5872 5872 5872 5871 5871 5869 5869 5869 5868 5868 5867 5866 5865 5864 5863 5862 5860 5859 5857 5856 5854 5852
5823 5828 5832 5836 5838 5843 5847 5848 5849 5851 5854 5856 5858 5860 5861 5862 5864 5865 5866 5867 5868 5868 5868 5868 5868 5867 5867 5866 5865 5865 5865 5865 5864 5863 5862 5861 5860 5858 5857 5856 5854 5853 5851 5849
5819 5823 5828 5829 5832 5835 5838 5841 5844 5846 5848 5850 5853 5855 5856 5858 5859 5861 5862 5863 5864 5865 5865 5864 5864 5864 5863 5863 5862 5861 5861 5861 5860 5860 5859 5857 5856 5855 5854 5853 5851 5849 5848 5846
5813 5817 5819 5822 5824 5828 5832 5835 5838 5841 5844 5846 5848 5850 5852 5853 5855 5857 5858 5859 5860 5860 5861 5861 5860 5860 5860 5859 5859 5858 5858 5857 5857 5856 5855 5854 5853 5851 5850 5849 5847 5845 5843 5841
5805 5809 5812 5816 5818 5823 5827 5831 5834 5837 5839 5841 5843 5845 5847 5849 5851 5852 5853 5854 5855 5856 5856 5856 5856 5856 5856 5855 5855 5855 5854 5853 5853 5852 5851 5850 5849 5847 5846 5844 5842 5840 5838 5836
5798 5802 5806 5809 5814 5818 5822 5826 5829 5831 5834 5836 5838 5840 5842 5844 5846 5847 5849 5850 5851 5851 5852 5852 5852 5851 5851 5851 5851 5850 5850 5849 5848 5847 5846 5845 5844 5842 5840 5839 5837 5835 5833 5831
5791 5796 5800 5804 5808 5812 5816 5820 5823 5825 5828 5831 5833 5835 5837 5839 5841 5842 5843 5845 5846 5846 5847 5847 5847 5847 5846 5846 5846 5845 5845 5844 5843 5842 5841 5840 5838 5837 5835 5833 5831 5829 5827 5825
5784 5789 5793 5798 5802 5806 5810 5813 5817 5819 5822 5825 5828 5829 5832 5833 5835 5837 5838 5839 5841 5841 5841 5842 5841 5841 5841 5841 5840 5840 5839 5839 5838 5837 5836 5834 5833 5831 5830 5828 5825 5823 5821 5818
5777 5782 5787 5792 5796 5800 5804 5807 5810 5813 5816 5819 5822 5824 5826 5828 5830 5831 5833 5834 5835 5835 5836 5836 5836 5836 5835 5835 5834 5834 5833 5833 5832 5831 5830 5829 5827 5825 5824 5821 5819 5817 5814 5812
5771 5776 5781 5785 5788 5793 5797 5801 5804 5807 5810 5813 5816 5818 5820 5822 5824 5826 5827 5828 5829 5830 5830 5830 5830 5830 5830 5829 5829 5828 5827 5827 5826 5825 5824 5822 5821 5819 5817 5815 5813 5810 5808 5805
5766 5771 5775 5778 5782 5786 5790 5794 5798 5801 5804 5807 5809 5812 5814 5816 5818 5819 5821 5822 5823 5824 5824 5824 5824 5824 5824 5823 5823 5822 5821 5820 5820 5818 5817 5815 5814 5812 5810 5808 5806 5803 5800 5797
5759 5763 5768 5772 5776 5780 5784 5787 5791 5794 5797 5800 5803 5806 5808 5810 5811 5813 5814 5816 5817 5817 5818 5818 5818 5818 5818 5817 5817 5816 5815 5814 5813 5811 5810 5808 5807 5805 5803 5801 5799 5796 5793 5790
5752 5756 5761 5766 5770 5773 5777 5781 5784 5788 5791 5794 5797 5799 5801 5803 5805 5806 5808 5809 5810 5811 5811 5812 5812 5811 5811 5810 5810 5809 5808 5807 5806 5805 5803 5802 5800 5798 5796 5793 5791 5788 5785 5782
5747 5751 5755 5760 5764 5767 5770 5774 5778 5781 5784 5787 5790 5792 5794 5796 5798 5800 5801 5802 5803 5804 5805 5805 5805 5805 5804 5803 5803 5802 5801 5800 5799 5798 5797 5795 5793 5791 5788 5786 5783 5781 5778 5774
5741 5745 5749 5753 5757 5760 5764 5767 5770 5774 5777 5780 5783 5785 5787 5789 5791 5793 5794 5795 5797 5797 5798 5798 5798 5798 5797 5797 5796 5795 5794 5793 5792 5791 5790 5788 5786 5783 5781 5778 5776 5773 5770 5767
5736 5740 5744 5748 5751 5754 5758 5761 5764 5767 5770 5774 5776 5779 5781 5783 5785 5786 5787 5789 5790 5790 5791 5791 5791 5791 5791 5790 5789 5789 5788 5787 5785 5784 5782 5780 5778 5776 5774 5771 5768 5765 5762 5759
5730 5734 5738 5742 5745 5749 5752 5755 5758 5761 5764 5767 5770 5772 5775 5777 5778 5780 5781 5783 5783 5784 5784 5784 5784 5784 5784 5783 5783 5782 5781 5780 5778 5777 5775 5773 5771 5769 5766 5764 5761 5758 5754 5751
5725 5729 5733 5737 5740 5744 5747 5750 5753 5756 5758 5761 5764 5766 5768 5770 5772 5773 5775 5776 5777 5777 5777 5778 5778 5777 5777 5776 5776 5775 5774 5773 5771 5770 5768 5767 5765 5762 5760 5757 5754 5751 5747 5744
5721 5725 5728 5732 5735 5739 5742 5745 5748 5751 5753 5756 5758 5761 5763 5764 5766 5768 5769 5770 5771 5771 5771 5771 5771 5771 5771 5770 5769 5768 5767 5766 5765 5763 5762 5760 5758 5755 5753 5750 5747 5744 5740 5737
5718 5721 5725 5728 5731 5735 5738 5741 5744 5746 5749 5751 5753 5755 5757 5759 5760 5762 5763 5764 5765 5765 5765 5765 5765 5764 5764 5764 5763 5762 5761 5760 5758 5757 5755 5753 5751 5748 5745 5743 5740 5736 5733 5730
5715 5718 5721 5724 5728 5731 5734 5737 5740 5742 5744 5746 5748 5750 5752 5753 5755 5756 5757 5758 5759 5759 5759 5759 5759 5759 5758 5758 5757 5755 5754 5753 5752 5750 5748 5746 5744 5741 5738 5735 5732 5729 5726 5723
5712 5715 5718 5721 5724 5727 5730 5733 5735 5737 5740 5741 5743 5745 5746 5748 5749 5751 5752 5752 5753 5753 5754 5753 5753 5753 5752 5751 5751 5750 5748 5747 5745 5743 5741 5739 5737 5734 5732 5728 5725 5722 5719 5715
Wind_Speed
28 23 21 22 22 23 25 25 22 21 22 23 22 20 20 20 20 18 16 15 15 15 14 14 14 13 13 12 12 12 12 11 12 12 13 12 13 14 14 14 14 14 15 15
30 26 23 22 22 23 24 25 23 22 23 22 22 22 22 21 20 18 17 16 16 15 14 14 14 13 13 13 13 12 12 12 12 13 13 13 13 14 14 14 14 14 15 15
29 27 27 26 25 23 22 22 23 24 24 23 22 23 23 22 21 20 18 17 17 16 15 15 14 14 13 14 13 12 12 12 12 13 13 13 14 14 14 14 15 16 15 15
27 27 28 26 24 23 23 23 23 24 26 24 23 24 24 23 21 20 19 18 17 16 16 15 15 14 14 14 14 13 13 13 13 14 13 14 14 15 15 15 15 15 15 15
26 25 26 24 24 23 23 24 25 25 25 25 25 24 24 22 21 19 18 17 17 16 16 16 15 15 14 14 14 14 14 14 14 14 14 15 15 16 16 15 16 16 16 16
28 24 24 22 22 22 24 25 26 27 28 26 26 24 22 21 21 19 18 17 17 17 17 17 17 16 16 16 15 15 15 15 15 15 15 15 16 16 16 16 17 17 17 17
30 26 23 22 21 22 24 25 26 26 26 26 25 25 23 22 21 19 19 18 18 18 18 18 17 17 16 16 15 16 16 16 16 16 16 17 17 17 17 18 18 18 18 18
31 27 25 24 23 25 26 26 26 26 25 25 25 24 24 23 22 20 20 19 19 19 19 18 18 17 17 16 16 16 16 16 17 18 18 18 18 18 18 19 19 19 20 20
33 33 30 28 29 28 27 26 26 26 25 25 25 25 24 24 22 21 21 21 20 19 18 18 18 18 17 17 17 17 17 17 18 18 19 19 19 19 20 20 20 20 21 21
35 35 34 31 29 29 28 27 27 27 26 25 25 25 24 24 23 22 22 22 21 20 19 19 19 19 18 18 17 18 18 19 19 19 19 19 20 21 21 22 22 22 22 23
37 37 36 33 31 29 29 29 28 27 26 25 25 25 24 24 23 23 22 22 21 21 21 21 21 20 20 20 20 20 20 20 20 21 21 21 22 22 22 23 23 24 24 24
39 38 36 34 32 31 30 29 29 28 27 26 25 25 25 24 24 24 23 22 21 21 21 21 21 21 21 21 21 21 21 21 21 22 22 22 22 23 23 24 25 25 25 26
36 36 35 34 34 33 31 30 29 28 28 26 26 26 25 25 25 24 24 23 23 23 22 22 22 22 22 23 23 23 23 23 23 22 23 23 23 24 24 25 26 26 27 27
33 34 34 33 34 33 31 29 29 28 27 27 26 26 26 26 26 25 25 24 24 24 23 23 23 23 23 24 24 24 24 24 23 23 23 24 24 25 26 26 26 27 27 28
32 33 33 32 32 32 31 30 29 28 28 27 26 26 26 26 26 26 26 25 24 24 24 24 24 24 24 24 24 24 23 24 24 25 25 25 25 26 26 26 27 27 28 29
31 31 32 32 32 31 31 31 30 30 29 28 27 26 25 25 25 25 26 25 25 25 25 25 25 25 24 24 24 24 24 24 25 25 25 26 26 27 27 27 28 29 29 30
32 32 31 31 31 31 31 31 30 30 29 28 27 26 26 26 26 26 26 26 26 25 25 25 24 24 25 25 25 25 25 25 25 26 26 26 26 27 27 28 29 29 30 30
30 30 30 30 30 30 30 31 30 30 30 29 28 27 27 26 26 26 26 26 26 25 25 25 25 25 25 25 25 25 25 25 25 25 26 26 27 27 28 29 29 29 29 30
30 30 30 30 30 30 30 30 30 30 30 30 29 28 28 27 26 26 26 26 26 26 25 24 25 25 25 25 25 25 25 25 25 26 27 27 28 28 29 30 29 29 30 31
30 30 30 30 30 30 29 29 29 30 29 29 28 27 27 27 26 25 25 25 25 25 24 24 24 24 24 24 24 24 24 25 25 26 26 27 28 28 29 29 29 30 30 30
29 30 30 30 30 29 28 27 28 30 29 29 28 27 26 26 26 25 25 25 24 24 24 24 24 23 23 23 23 24 24 24 24 25 26 27 27 28 28 29 29 29 29 30
28 29 30 29 28 27 27 27 27 27 27 27 26 26 26 26 25 25 25 24 24 23 23 23 23 23 24 24 24 24 24 24 25 25 26 26 26 26 26 27 27 28 29 30
27 27 27 27 26 26 26 26 26 26 26 25 25 24 24 24 24 24 23 23 22 22 22 22 22 23 23 23 23 23 24 24 24 24 24 25 25 25 26 27 27 29 30 30
25 24 24 24 25 24 23 23 23 24 24 24 23 22 22 22 22 22 22 22 21 21 21 22 22 22 22 23 23 23 23 23 23 23 23 23 24 26 27 27 28 29 29 30
22 23 23 23 23 22 22 22 23 22 22 22 22 22 21 21 21 20 20 20 20 21 20 21 21 21 22 22 22 22 22 22 22 22 23 24 26 26 27 27 28 29 29 30
20 21 22 22 21 21 21 21 21 21 21 21 21 21 21 20 20 19 20 20 20 20 20 20 20 21 21 21 21 20 20 21 22 23 24 25 26 26 27 27 28 29 29 29
18 19 19 19 19 19 20 20 20 20 20 20 20 19 19 19 19 19 19 19 19 20 19 18 18 19 19 18 19 19 20 22 23 24 25 26 26 26 27 27 28 28 28 28
Wind_Direction
212 215 227 237 234 226 223 225 232 239 243 255 261 263 267 269 273 274 274 276 279 286 291 296 300 302 302 301 299 298 300 302 304 304 306 306 307 310 313 313 313 307 301 297
213 212 218 228 232 229 228 226 226 234 236 241 251 259 264 269 273 275 275 273 275 281 286 291 296 298 299 298 301 299 298 301 302 301 303 306 308 310 313 314 316 314 307 303
214 215 220 225 231 230 230 229 227 233 238 236 245 254 262 266 267 270 270 271 273 277 283 289 293 294 293 296 297 300 299 297 298 301 302 305 309 310 313 313 316 316 312 309
214 217 222 225 229 230 229 228 229 233 239 239 243 253 259 262 262 264 267 269 272 276 280 285 288 292 293 293 297 298 300 301 299 300 301 304 307 308 311 314 316 317 316 314
210 219 225 224 224 225 227 227 226 232 237 240 244 251 255 257 259 260 263 266 270 275 279 282 285 291 294 293 297 299 298 299 303 303 302 301 303 307 311 313 314 315 318 315
208 213 221 225 225 225 226 229 226 228 232 237 243 249 252 252 257 257 259 262 268 274 278 281 283 287 291 293 290 292 295 297 298 300 302 302 304 307 310 313 313 315 316 316
209 213 221 221 216 221 223 225 226 228 233 236 240 246 250 252 255 255 257 261 267 274 278 280 283 286 288 290 288 289 292 293 294 298 300 300 303 305 306 308 309 312 313 313
210 213 221 220 217 218 220 227 231 233 237 238 240 244 249 253 255 256 257 260 267 273 276 278 280 284 286 287 287 290 292 294 295 296 297 299 301 302 304 305 306 308 309 309
213 215 219 219 223 226 228 230 233 237 239 242 244 246 248 251 253 255 257 259 264 269 275 278 279 282 283 286 287 288 291 293 294 295 296 298 299 300 302 305 305 306 306 307
215 217 220 223 224 226 230 235 238 241 242 243 244 246 247 250 252 253 256 258 261 265 272 277 278 280 282 283 286 288 289 291 293 293 294 296 298 299 300 302 304 305 306 307
219 220 224 226 227 229 233 238 240 241 242 244 245 245 246 249 251 253 256 258 261 264 269 274 277 277 278 281 284 287 287 289 291 292 293 294 296 299 301 302 304 306 306 306
220 222 225 225 228 232 235 237 238 239 242 244 246 247 247 249 252 253 255 257 261 265 268 272 274 275 278 280 283 285 286 287 288 290 291 294 296 298 300 302 303 304 305 306
223 225 226 228 230 233 235 236 237 239 241 244 246 247 248 249 251 253 254 256 260 263 267 271 274 277 278 279 281 282 284 285 287 289 291 293 296 298 299 301 302 303 304 305
223 225 227 228 231 233 234 237 237 238 240 242 244 246 248 249 251 252 255 257 259 262 267 270 273 277 277 278 280 281 282 284 286 289 290 292 295 297 300 301 303 304 305 305
225 227 228 229 231 233 234 236 236 236 238 240 243 245 247 249 251 253 255 258 261 263 266 269 271 275 277 278 279 281 283 284 286 288 291 293 296 298 300 301 303 304 305 306
228 229 230 231 232 233 234 235 236 236 238 239 241 244 247 249 252 253 255 257 260 262 265 268 270 274 277 279 280 282 284 285 287 289 291 293 297 300 301 302 302 304 305 305
229 229 228 231 232 234 235 235 236 235 237 239 241 244 248 250 252 253 254 257 259 261 264 268 272 275 277 278 279 282 283 285 287 290 291 294 297 300 301 301 301 302 305 306
230 229 229 230 232 234 235 236 236 235 236 239 241 245 248 251 252 252 254 257 260 263 265 269 272 276 277 279 279 280 282 285 287 289 292 295 297 299 300 301 301 303 305 306
231 230 230 231 233 235 236 236 236 237 238 240 243 246 248 250 250 252 255 258 261 265 267 269 273 276 277 279 280 281 282 285 287 289 291 295 297 299 300 300 302 304 306 306
228 227 229 231 233 235 236 235 235 236 238 240 242 246 248 249 251 253 256 260 263 265 267 270 273 275 277 278 280 282 284 285 287 290 293 294 296 297 299 301 303 304 306 307
226 226 227 230 234 234 235 235 235 234 236 239 242 245 247 249 252 254 256 261 265 267 268 269 272 274 275 278 280 282 284 286 288 291 293 295 296 297 299 301 303 305 307 307
227 227 228 229 231 232 234 235 235 235 238 239 241 245 247 249 252 254 257 261 264 265 267 269 271 274 276 277 279 282 284 286 289 291 293 294 297 299 301 303 304 305 306 307
225 225 225 226 228 230 232 233 235 236 238 240 242 245 247 250 252 254 256 260 263 265 267 269 272 276 277 277 279 281 284 286 288 289 292 294 297 300 302 303 305 307 307 308
220 221 223 225 225 227 229 230 233 236 239 241 244 247 248 251 253 255 258 261 262 264 267 271 273 276 278 277 278 281 284 286 288 289 291 294 297 300 302 304 306 307 307 307
217 219 222 224 225 225 227 230 233 238 239 241 244 246 247 249 252 255 258 260 263 266 270 273 274 276 278 279 279 281 283 285 287 290 293 295 298 300 303 305 306 307 308 309
215 218 221 223 224 225 228 231 234 236 238 241 244 244 246 247 250 253 257 260 265 269 273 275 275 278 281 281 281 282 284 288 291 293 295 296 298 301 304 305 306 308 309 309
215 217 220 221 224 227 231 232 232 234 237 240 244 246 247 248 249 252 256 260 263 268 272 273 275 279 280 281 282 285 287 290 292 294 295 297 299 301 303 305 306 307 307 308